| time (UTC) | temp F | wind direction | speed MPH | gust MPH | rain 1hr in | rain 24hr in | rain mn in | humidity % | barometer mb |
| 20260903202033 | 95 | 113 | 7.0 | 14.0 | 0.00 | 0.00 | 0.00 | 54 | 1009.6 |
| 20260903200033 | 95 | 94 | 6.0 | 17.0 | 0.00 | 0.00 | 0.00 | 53 | 1009.7 |
| 20260903195033 | 95 | 124 | 12.0 | 14.0 | 0.00 | 0.00 | 0.00 | 53 | 1009.7 |
| 20260903194033 | 95 | 113 | 6.0 | 15.0 | 0.00 | 0.00 | 0.00 | 53 | 1009.8 |
| 20260903193033 | 96 | 144 | 3.0 | 13.0 | 0.00 | 0.00 | 0.00 | 52 | 1009.9 |
| 20260903192033 | 96 | 53 | 6.0 | 14.0 | 0.00 | 0.00 | 0.00 | 53 | 1010.0 |
| 20260903191033 | 96 | 86 | 8.0 | 13.0 | 0.00 | 0.00 | 0.00 | 52 | 1010.2 |
| 20260903190033 | 94 | 71 | 8.0 | 12.0 | 0.00 | 0.00 | 0.00 | 53 | 1010.4 |
| 20260903183033 | 93 | 137 | 5.0 | 13.0 | 0.00 | 0.00 | 0.00 | 55 | 1010.9 |
| 20260903182033 | 94 | 146 | 4.0 | 11.0 | 0.00 | 0.00 | 0.00 | 54 | 1011.0 |
| 20260903181033 | 94 | 188 | 4.0 | 10.0 | 0.00 | 0.00 | 0.00 | 54 | 1011.1 |
| 20260903180033 | 94 | 139 | 8.0 | 13.0 | 0.00 | 0.00 | 0.00 | 53 | 1011.3 |
| 20260903174033 | 95 | 215 | 5.0 | 10.0 | 0.00 | 0.00 | 0.00 | 51 | 1011.5 |
| 20260903173033 | 95 | 142 | 8.0 | 12.0 | 0.00 | 0.00 | 0.00 | 52 | 1011.7 |
| 20260903172033 | 95 | 148 | 3.0 | 10.0 | 0.00 | 0.00 | 0.00 | 52 | 1011.8 |
| 20260903171033 | 92 | 163 | 1.0 | 9.0 | 0.00 | 0.00 | 0.00 | 57 | 1011.9 |
| 20260903170033 | 92 | 187 | 4.0 | 11.0 | 0.00 | 0.00 | 0.00 | 58 | 1011.9 |
| 20260903165033 | 91 | 213 | 1.0 | 10.0 | 0.00 | 0.00 | 0.00 | 59 | 1011.8 |
| 20260903164033 | 90 | 165 | 1.0 | 12.0 | 0.00 | 0.00 | 0.00 | 61 | 1011.7 |
| 20260903162033 | 90 | 183 | 5.0 | 15.0 | 0.00 | 0.00 | 0.00 | 61 | 1011.7 |
| 20260903161033 | 90 | 194 | 10.0 | 16.0 | 0.00 | 0.00 | 0.00 | 60 | 1011.5 |
| 20260903160033 | 89 | 194 | 10.0 | 14.0 | 0.00 | 0.00 | 0.00 | 61 | 1011.4 |
| 20260903155033 | 90 | 211 | 9.0 | 12.0 | 0.00 | 0.00 | 0.00 | 62 | 1011.3 |
| 20260903154033 | 90 | 207 | 6.0 | 14.0 | 0.00 | 0.00 | 0.00 | 62 | 1011.3 |
| 20260903153033 | 89 | 215 | 9.0 | 14.0 | 0.00 | 0.00 | 0.00 | 64 | 1011.4 |
| 20260903151033 | 87 | 192 | 3.0 | 14.0 | 0.00 | 0.00 | 0.00 | 68 | 1011.4 |
| 20260903150033 | 86 | 200 | 7.0 | 14.0 | 0.00 | 0.00 | 0.00 | 69 | 1011.4 |
| 20260903145033 | 86 | 206 | 4.0 | 15.0 | 0.00 | 0.00 | 0.00 | 70 | 1011.5 |
| 20260903144033 | 85 | 188 | 4.0 | 13.0 | 0.00 | 0.00 | 0.00 | 71 | 1011.3 |
| 20260903143033 | 85 | 234 | 13.0 | 21.0 | 0.00 | 0.00 | 0.00 | 71 | 1011.3 |
| 20260903142033 | 84 | 213 | 9.0 | 15.0 | 0.00 | 0.00 | 0.00 | 72 | 1011.3 |
| 20260903141033 | 84 | 269 | 10.0 | 16.0 | 0.00 | 0.00 | 0.00 | 73 | 1011.3 |
| 20260903140033 | 84 | 199 | 9.0 | 14.0 | 0.00 | 0.00 | 0.00 | 74 | 1011.3 |
| 20260903135033 | 84 | 228 | 5.0 | 10.0 | 0.00 | 0.00 | 0.00 | 76 | 1011.3 |
| 20260903134033 | 83 | 201 | 9.0 | 13.0 | 0.00 | 0.00 | 0.00 | 77 | 1011.3 |
| 20260903133033 | 83 | 188 | 7.0 | 11.0 | 0.00 | 0.00 | 0.00 | 78 | 1011.2 |
| 20260903132033 | 82 | 196 | 5.0 | 11.0 | 0.00 | 0.00 | 0.00 | 79 | 1011.3 |
| 20260903131033 | 82 | 211 | 8.0 | 12.0 | 0.00 | 0.00 | 0.00 | 79 | 1011.4 |
| 20260903130033 | 82 | 185 | 10.0 | 12.0 | 0.00 | 0.00 | 0.00 | 79 | 1011.4 |
| 20260903125033 | 82 | 175 | 10.0 | 12.0 | 0.00 | 0.00 | 0.00 | 80 | 1011.2 |
| 20260903124033 | 82 | 186 | 6.0 | 12.0 | 0.00 | 0.00 | 0.00 | 80 | 1011.2 |
| 20260903123033 | 82 | 181 | 6.0 | 14.0 | 0.00 | 0.00 | 0.00 | 80 | 1011.1 |
| 20260903122033 | 81 | 174 | 7.0 | 12.0 | 0.00 | 0.00 | 0.00 | 80 | 1011.0 |
| 20260903121033 | 81 | 169 | 5.0 | 14.0 | 0.00 | 0.00 | 0.00 | 80 | 1010.9 |
| 20260903120033 | 82 | 152 | 7.0 | 14.0 | 0.00 | 0.00 | 0.00 | 80 | 1010.9 |
| 20260903115033 | 82 | 178 | 8.0 | 15.0 | 0.00 | 0.00 | 0.00 | 80 | 1011.0 |
| 20260903113033 | 82 | 189 | 6.0 | 10.0 | 0.00 | 0.00 | 0.00 | 80 | 1011.0 |
| 20260903112033 | 82 | 200 | 9.0 | 12.0 | 0.00 | 0.00 | 0.00 | 80 | 1011.1 |
| 20260903111033 | 82 | 154 | 7.0 | 13.0 | 0.00 | 0.00 | 0.00 | 81 | 1011.0 |
| 20260903110033 | 82 | 158 | 5.0 | 12.0 | 0.00 | 0.00 | 0.00 | 81 | 1010.9 |
| 20260903104033 | 81 | 159 | 7.0 | 14.0 | 0.00 | 0.00 | 0.00 | 81 | 1010.7 |
| 20260903102032 | 81 | 187 | 9.0 | 12.0 | 0.00 | 0.00 | 0.00 | 80 | 1010.7 |
| 20260903101033 | 81 | 192 | 6.0 | 13.0 | 0.00 | 0.00 | 0.00 | 80 | 1010.6 |
| 20260903095032 | 82 | 194 | 10.0 | 12.0 | 0.00 | 0.00 | 0.00 | 80 | 1010.5 |
| 20260903094032 | 82 | 172 | 7.0 | 14.0 | 0.00 | 0.00 | 0.00 | 80 | 1010.6 |
| 20260903093033 | 82 | 173 | 7.0 | 13.0 | 0.00 | 0.00 | 0.00 | 79 | 1010.7 |
| 20260903091033 | 82 | 193 | 5.0 | 16.0 | 0.00 | 0.00 | 0.00 | 79 | 1010.9 |
| 20260903090032 | 82 | 170 | 11.0 | 15.0 | 0.00 | 0.00 | 0.00 | 79 | 1010.9 |
| 20260903085033 | 82 | 141 | 11.0 | 16.0 | 0.00 | 0.00 | 0.00 | 79 | 1010.9 |
| 20260903084032 | 82 | 168 | 12.0 | 15.0 | 0.00 | 0.00 | 0.00 | 78 | 1010.9 |
| 20260903083033 | 82 | 161 | 12.0 | 15.0 | 0.00 | 0.00 | 0.00 | 78 | 1010.8 |
| 20260903082032 | 82 | 172 | 8.0 | 16.0 | 0.00 | 0.00 | 0.00 | 78 | 1010.8 |
| 20260903081032 | 82 | 154 | 6.0 | 13.0 | 0.00 | 0.00 | 0.00 | 77 | 1010.9 |
| 20260903080033 | 82 | 190 | 11.0 | 15.0 | 0.00 | 0.00 | 0.00 | 77 | 1010.9 |
| 20260903075032 | 82 | 200 | 7.0 | 14.0 | 0.00 | 0.00 | 0.00 | 77 | 1011.0 |
| 20260903074033 | 82 | 173 | 6.0 | 12.0 | 0.00 | 0.00 | 0.00 | 76 | 1010.9 |
| 20260903073033 | 82 | 180 | 9.0 | 15.0 | 0.00 | 0.00 | 0.00 | 76 | 1010.9 |
| 20260903072033 | 82 | 174 | 10.0 | 14.0 | 0.00 | 0.00 | 0.00 | 76 | 1011.0 |
| 20260903071033 | 82 | 159 | 6.0 | 10.0 | 0.00 | 0.00 | 0.00 | 75 | 1011.2 |
| 20260903065032 | 82 | 193 | 5.0 | 15.0 | 0.00 | 0.00 | 0.00 | 75 | 1011.2 |
| 20260903064033 | 82 | 188 | 4.0 | 11.0 | 0.00 | 0.00 | 0.00 | 75 | 1011.3 |
| 20260903062032 | 82 | 153 | 5.0 | 11.0 | 0.00 | 0.00 | 0.00 | 75 | 1011.4 |
| 20260903061032 | 82 | 163 | 4.0 | 10.0 | 0.00 | 0.00 | 0.00 | 75 | 1011.4 |
| 20260903060032 | 82 | 153 | 2.0 | 10.0 | 0.00 | 0.00 | 0.00 | 75 | 1011.4 |
| 20260903055032 | 82 | 188 | 3.0 | 9.0 | 0.00 | 0.00 | 0.00 | 75 | 1011.4 |
| 20260903053033 | 81 | 150 | 6.0 | 10.0 | 0.00 | 0.00 | 0.00 | 76 | 1011.3 |
| 20260903052032 | 81 | 150 | 4.0 | 10.0 | 0.00 | 0.00 | 0.00 | 76 | 1011.3 |
| 20260903051032 | 81 | 150 | 3.0 | 10.0 | 0.00 | 0.00 | 0.00 | 76 | 1011.4 |
| 20260903050032 | 81 | 148 | 3.0 | 9.0 | 0.00 | 0.00 | 0.00 | 75 | 1011.4 |
| 20260903045032 | 81 | 109 | 2.0 | 8.0 | 0.00 | 0.00 | 0.00 | 75 | 1011.4 |
| 20260903044032 | 82 | 128 | 4.0 | 8.0 | 0.00 | 0.00 | 0.00 | 74 | 1011.3 |
| 20260903043032 | 82 | 151 | 2.0 | 8.0 | 0.00 | 0.00 | 0.00 | 73 | 1011.3 |
| 20260903042032 | 82 | 123 | 3.0 | 9.0 | 0.00 | 0.00 | 0.00 | 72 | 1011.3 |
| 20260903041032 | 83 | 103 | 4.0 | 9.0 | 0.00 | 0.00 | 0.00 | 70 | 1011.3 |
| 20260903040032 | 84 | 117 | 2.0 | 11.0 | 0.00 | 0.00 | 0.00 | 68 | 1011.2 |
| 20260903035032 | 84 | 109 | 3.0 | 13.0 | 0.00 | 0.00 | 0.00 | 67 | 1011.3 |
| 20260903034032 | 84 | 130 | 8.0 | 13.0 | 0.00 | 0.00 | 0.00 | 65 | 1011.4 |
| 20260903033032 | 85 | 103 | 4.0 | 12.0 | 0.00 | 0.00 | 0.00 | 64 | 1011.4 |
| 20260903031032 | 86 | 79 | 8.0 | 13.0 | 0.00 | 0.00 | 0.00 | 63 | 1011.0 |
| 20260903030032 | 87 | 93 | 6.0 | 12.0 | 0.00 | 0.00 | 0.00 | 61 | 1010.8 |
| 20260903025032 | 88 | 82 | 10.0 | 11.0 | 0.00 | 0.00 | 0.00 | 59 | 1010.6 |
| 20260903024032 | 87 | 76 | 2.0 | 9.0 | 0.00 | 0.00 | 0.00 | 57 | 1010.3 |
| 20260903023032 | 87 | 70 | 4.0 | 7.0 | 0.00 | 0.00 | 0.00 | 57 | 1010.0 |
| 20260903022032 | 88 | 88 | 4.0 | 11.0 | 0.00 | 0.00 | 0.00 | 56 | 1009.9 |
| 20260903021032 | 89 | 66 | 5.0 | 7.0 | 0.00 | 0.00 | 0.00 | 53 | 1009.7 |
| 20260903015032 | 90 | 129 | 1.0 | 3.0 | 0.00 | 0.00 | 0.00 | 52 | 1009.1 |
| 20260903014032 | 91 | 111 | 0.0 | 5.0 | 0.00 | 0.00 | 0.00 | 51 | 1009.2 |
| 20260903013032 | 91 | 159 | 2.0 | 7.0 | 0.00 | 0.00 | 0.00 | 51 | 1009.0 |
| 20260903012032 | 92 | 163 | 1.0 | 7.0 | 0.00 | 0.00 | 0.00 | 50 | 1009.1 |
| 20260903011032 | 92 | 128 | 2.0 | 5.0 | 0.00 | 0.00 | 0.00 | 50 | 1009.1 |
| 20260903010032 | 92 | 150 | 3.0 | 5.0 | 0.00 | 0.00 | 0.00 | 50 | 1009.1 |
| 20260903005032 | 92 | 123 | 2.0 | 4.0 | 0.00 | 0.00 | 0.00 | 49 | 1009.0 |
| 20260903004032 | 93 | 132 | 0.0 | 8.0 | 0.00 | 0.00 | 0.00 | 48 | 1009.1 |
| 20260903003032 | 93 | 184 | 3.0 | 8.0 | 0.00 | 0.00 | 0.00 | 47 | 1009.1 |
| 20260903002032 | 94 | 205 | 3.0 | 9.0 | 0.00 | 0.00 | 0.00 | 47 | 1009.1 |
| 20260903001032 | 96 | 197 | 4.0 | 10.0 | 0.00 | 0.00 | 0.00 | 45 | 1009.0 |
| 20260903000032 | 97 | 132 | 3.0 | 3.0 | 0.00 | 0.00 | 0.00 | 42 | 1009.0 |
| 20260902235032 | 96 | 233 | 1.0 | 3.0 | 0.00 | 0.00 | 0.00 | 42 | 1008.9 |
| 20260902233032 | 96 | 243 | 3.0 | 7.0 | 0.00 | 0.00 | 0.00 | 42 | 1009.0 |
| 20260902232032 | 97 | 205 | 3.0 | 5.0 | 0.00 | 0.00 | 0.00 | 42 | 1008.8 |
| 20260902231032 | 97 | 182 | 2.0 | 8.0 | 0.00 | 0.00 | 0.00 | 41 | 1008.8 |
| 20260902230032 | 98 | 202 | 7.0 | 7.0 | 0.00 | 0.00 | 0.00 | 41 | 1009.0 |
| 20260902225032 | 98 | 317 | 1.0 | 5.0 | 0.00 | 0.00 | 0.00 | 40 | 1008.8 |
| 20260902224032 | 98 | 32 | 1.0 | 6.0 | 0.00 | 0.00 | 0.00 | 40 | 1008.7 |
| 20260902223032 | 98 | 38 | 4.0 | 10.0 | 0.00 | 0.00 | 0.00 | 40 | 1008.8 |
| 20260902222032 | 99 | 355 | 3.0 | 10.0 | 0.00 | 0.00 | 0.00 | 39 | 1008.8 |
| 20260902221032 | 100 | 68 | 3.0 | 7.0 | 0.00 | 0.00 | 0.00 | 37 | 1008.7 |
| 20260902220032 | 100 | 15 | 1.0 | 3.0 | 0.00 | 0.00 | 0.00 | 35 | 1008.8 |
| 20260902215032 | 101 | 234 | 2.0 | 9.0 | 0.00 | 0.00 | 0.00 | 34 | 1008.7 |
| 20260902212032 | 103 | 252 | 3.0 | 8.0 | 0.00 | 0.00 | 0.00 | 33 | 1008.8 |
| 20260902211032 | 102 | 253 | 3.0 | 5.0 | 0.00 | 0.00 | 0.00 | 35 | 1009.0 |
| 20260902210032 | 101 | 117 | 1.0 | 8.0 | 0.00 | 0.00 | 0.00 | 36 | 1009.1 |
| 20260902205032 | 102 | 234 | 3.0 | 3.0 | 0.00 | 0.00 | 0.00 | 33 | 1009.3 |
| 20260902204032 | 103 | 11 | 1.0 | 7.0 | 0.00 | 0.00 | 0.00 | 34 | 1009.4 |
| 20260902203032 | 102 | 191 | 4.0 | 11.0 | 0.00 | 0.00 | 0.00 | 34 | 1009.5 |